Weather History for Williams, AZ

Change the Weather History Date:

Friday, January 18, 2013

  Actual Average (KFLG) Record (KFLG)
Temperature  
Mean Temperature 34 °F 30 °F  
Max Temperature 48 °F 43 °F 64 °F (1971)
Min Temperature 21 °F 17 °F -8 °F (1995)
Degree Days  
Heating Degree Days 30 35  
Month to date heating degree days 636  
Since 1 July heating degree days 3464  
Cooling Degree Days 0 0  
Month to date cooling degree days 0  
Year to date cooling degree days 0  
Moisture  
Dew Point 15 °F    
Average Humidity 53    
Maximum Humidity 80    
Minimum Humidity 25    
Precipitation  
Precipitation 0.00 in 0.06 in 1.73 in (1952)
Month to date precipitation 1.25  
Year to date precipitation 1.25  
Snow  
Snow 0.00 in 0.80 in 13.20 in (1980)
Month to date snowfall 13.2  
Since 1 July snowfall 42.3  
Snow Depth -    
Sea Level Pressure  
Sea Level Pressure 30.36 in    
Wind  
Wind Speed 6 mph (SE)    
Max Wind Speed 13 mph    
Max Gust Speed -    
Visibility 10 miles    
Events      
T = Trace of Precipitation, MM = Missing Value Source: NWS Daily Summary

Daily Weather History Graph

Daily Weather History Graph

Search for Another Location

Airport:

Trip Planner

Search our weather history database for the weather conditions in past years. The results will help you decide how hot, cold, wet, or windy it might be!

Date:

Astronomy

Jan. 18, 2013 Rise Set
Actual Time 7:35 AM MST 5:43 PM MST
Civil Twilight 7:08 AM MST 6:10 PM MST
Nautical Twilight 6:37 AM MST 6:41 PM MST
Astronomical Twilight 6:07 AM MST 7:11 PM MST
Moon 11:34 AM MST (1/18) 12:19 AM MST (1/18)
Length of Visible Light 11h 02m
Length of Day
10h 07m
Waxing Crescent, 48% of the Moon is Illuminated
Jan 18
Waxing Crescent
Jan 18
First Quarter
Jan 26
Full
Feb 3
Last Quarter
Feb 10
New

Hourly Weather History & Observations

Time (MST) Temp. Windchill Dew Point Humidity Pressure Visibility Wind Dir Wind Speed Gust Speed Precip Events Conditions
12:15 AM 26.6 °F 18.2 °F 14.0 °F 59% 30.40 in 10.0 mi ESE 8.1 mph - N/A   Clear
12:35 AM 26.6 °F 17.5 °F 12.2 °F 55% 30.39 in 10.0 mi SE 9.2 mph - N/A   Clear
12:55 AM 26.6 °F 19.1 °F 14.0 °F 59% 30.40 in 10.0 mi SE 6.9 mph - N/A   Clear
1:15 AM 26.6 °F 19.1 °F 12.2 °F 55% 30.40 in 10.0 mi SE 6.9 mph - N/A   Clear
1:35 AM 26.6 °F 19.1 °F 12.2 °F 55% 30.40 in 10.0 mi SE 6.9 mph - N/A   Clear
1:55 AM 26.6 °F 19.1 °F 12.2 °F 55% 30.40 in 10.0 mi SE 6.9 mph - N/A   Clear
2:15 AM 24.8 °F 16.1 °F 12.2 °F 59% 30.40 in 10.0 mi SE 8.1 mph - N/A   Clear
2:35 AM 26.6 °F 17.5 °F 12.2 °F 55% 30.40 in 10.0 mi SE 9.2 mph - N/A   Clear
2:55 AM 24.8 °F - 12.2 °F 59% 30.40 in 10.0 mi Calm Calm - N/A   Clear
3:15 AM 26.6 °F 20.0 °F 12.2 °F 55% 30.39 in 10.0 mi SE 5.8 mph - N/A   Clear
3:35 AM 24.8 °F 20.5 °F 12.2 °F 59% 30.39 in 10.0 mi SE 3.5 mph - N/A   Clear
3:55 AM 24.8 °F 17.9 °F 12.2 °F 59% 30.38 in 10.0 mi SE 5.8 mph - N/A   Clear
4:15 AM 26.6 °F 19.1 °F 12.2 °F 55% 30.37 in 10.0 mi SE 6.9 mph - N/A   Clear
4:35 AM 26.6 °F 19.1 °F 12.2 °F 55% 30.37 in 10.0 mi SE 6.9 mph - N/A   Clear
4:55 AM 24.8 °F 16.9 °F 12.2 °F 59% 30.37 in 10.0 mi ESE 6.9 mph - N/A   Clear
5:15 AM 24.8 °F 16.1 °F 12.2 °F 59% 30.36 in 10.0 mi SE 8.1 mph - N/A   Clear
5:35 AM 24.8 °F 15.3 °F 12.2 °F 59% 30.36 in 10.0 mi SE 9.2 mph - N/A   Clear
5:55 AM 24.8 °F 16.1 °F 12.2 °F 59% 30.36 in 10.0 mi SE 8.1 mph - N/A   Clear
6:15 AM 24.8 °F 16.9 °F 12.2 °F 59% 30.36 in 10.0 mi SE 6.9 mph - N/A   Clear
6:35 AM 23.0 °F 14.7 °F 12.2 °F 63% 30.37 in 10.0 mi SE 6.9 mph - N/A   Clear
6:55 AM 21.2 °F 12.6 °F 10.4 °F 63% 30.37 in 10.0 mi SE 6.9 mph - N/A   Clear
7:15 AM 21.2 °F 10.9 °F 10.4 °F 63% 30.37 in 10.0 mi SSE 9.2 mph - N/A   Clear
7:35 AM 21.2 °F 9.5 °F 12.2 °F 68% 30.38 in 10.0 mi SSE 11.5 mph - N/A   Clear
7:55 AM 21.2 °F 8.9 °F 12.2 °F 68% 30.38 in 10.0 mi SE 12.7 mph - N/A   Clear
8:15 AM 23.0 °F 13.9 °F 12.2 °F 63% 30.38 in 10.0 mi SE 8.1 mph - N/A   Clear
8:35 AM 24.8 °F - 12.2 °F 59% 30.39 in 10.0 mi Calm Calm - N/A   Clear
9:15 AM 28.4 °F 20.4 °F 14.0 °F 55% 30.40 in 10.0 mi SE 8.1 mph - N/A   Clear
9:35 AM 32.0 °F 25.6 °F 14.0 °F 48% 30.41 in 10.0 mi SE 6.9 mph - N/A   Clear
9:55 AM 32.0 °F 25.6 °F 14.0 °F 48% 30.41 in 10.0 mi SE 6.9 mph - N/A   Clear
10:15 AM 35.6 °F 29.9 °F 15.8 °F 44% 30.41 in 10.0 mi SSE 6.9 mph - N/A   Clear
10:35 AM 37.4 °F 32.8 °F 15.8 °F 41% 30.41 in 10.0 mi SSE 5.8 mph - N/A   Clear
10:55 AM 39.2 °F - 15.8 °F 39% 30.41 in 10.0 mi Calm Calm - N/A   Clear
11:15 AM 41.0 °F - 15.8 °F 36% 30.40 in 10.0 mi Calm Calm - N/A   Clear
11:35 AM 42.8 °F - 14.0 °F 31% 30.39 in 10.0 mi Calm Calm - N/A   Clear
11:55 AM 42.8 °F - 15.8 °F 34% 30.38 in 10.0 mi Calm Calm - N/A   Clear
12:15 PM 44.6 °F - 15.8 °F 31% 30.37 in 10.0 mi Calm Calm - N/A   Clear
12:35 PM 46.4 °F - 15.8 °F 29% 30.36 in 10.0 mi Calm Calm - N/A   Clear
12:55 PM 46.4 °F - 15.8 °F 29% 30.35 in 10.0 mi Calm Calm - N/A   Clear
1:15 PM 46.4 °F - 15.8 °F 29% 30.34 in 10.0 mi Calm Calm - N/A   Clear
1:35 PM 48.2 °F - 14.0 °F 25% 30.33 in 10.0 mi Calm Calm - N/A   Clear
1:55 PM 48.2 °F - 14.0 °F 25% 30.33 in 10.0 mi Calm Calm - N/A   Clear
2:15 PM 48.2 °F - 14.0 °F 25% 30.32 in 10.0 mi Calm Calm - N/A   Clear
2:35 PM 46.4 °F - 17.6 °F 32% 30.32 in 10.0 mi Calm Calm - N/A   Clear
2:55 PM 48.2 °F - 17.6 °F 30% 30.32 in 10.0 mi Calm Calm - N/A   Clear
3:15 PM 46.4 °F - 17.6 °F 32% 30.32 in 10.0 mi Calm Calm - N/A   Clear
3:35 PM 46.4 °F - 19.4 °F 34% 30.32 in 10.0 mi Calm Calm - N/A   Clear
3:55 PM 46.4 °F 45.2 °F 21.2 °F 37% 30.32 in 10.0 mi NW 3.5 mph - N/A   Clear
4:15 PM 44.6 °F 40.7 °F 19.4 °F 37% 30.32 in 10.0 mi NW 6.9 mph - N/A   Clear
4:35 PM 44.6 °F 40.7 °F 21.2 °F 39% 30.32 in 10.0 mi NNW 6.9 mph - N/A   Clear
4:55 PM 41.0 °F 37.1 °F 21.2 °F 45% 30.33 in 10.0 mi NW 5.8 mph - N/A   Clear
5:15 PM 41.0 °F 38.0 °F 19.4 °F 42% 30.33 in 10.0 mi NW 4.6 mph - N/A   Clear
5:35 PM 39.2 °F - 17.6 °F 42% 30.33 in 10.0 mi Calm Calm - N/A   Clear
5:55 PM 39.2 °F - 15.8 °F 39% 30.34 in 10.0 mi Calm Calm - N/A   Clear
6:15 PM 37.4 °F - 15.8 °F 41% 30.34 in 10.0 mi Calm Calm - N/A   Clear
6:35 PM 32.0 °F 26.4 °F 17.6 °F 55% 30.34 in 10.0 mi SSE 5.8 mph - N/A   Clear
6:55 PM 30.2 °F 24.3 °F 17.6 °F 60% 30.34 in 10.0 mi SSE 5.8 mph - N/A   Clear
7:15 PM 28.4 °F 19.1 °F 19.4 °F 69% 30.35 in 10.0 mi SE 10.4 mph - N/A   Clear
7:35 PM 28.4 °F 21.2 °F 19.4 °F 69% 30.35 in 10.0 mi SSE 6.9 mph - N/A   Clear
7:55 PM 26.6 °F 16.8 °F 19.4 °F 74% 30.35 in 10.0 mi SSE 10.4 mph - N/A   Clear
8:15 PM 26.6 °F 17.5 °F 19.4 °F 74% 30.35 in 10.0 mi SSE 9.2 mph - N/A   Clear
8:35 PM 26.6 °F 17.5 °F 17.6 °F 69% 30.36 in 10.0 mi SSE 9.2 mph - N/A   Clear
8:55 PM 28.4 °F 20.4 °F 17.6 °F 64% 30.36 in 10.0 mi SSE 8.1 mph - N/A   Clear
9:15 PM 26.6 °F 17.5 °F 17.6 °F 69% 30.36 in 10.0 mi SSE 9.2 mph - N/A   Clear
9:35 PM 26.6 °F 17.5 °F 17.6 °F 69% 30.35 in 9.0 mi SSE 9.2 mph - N/A   Clear
9:55 PM 24.8 °F 14.6 °F 17.6 °F 74% 30.35 in 10.0 mi SSE 10.4 mph - N/A   Clear
10:15 PM 24.8 °F 14.6 °F 17.6 °F 74% 30.36 in 10.0 mi SSE 10.4 mph - N/A   Clear
10:35 PM 23.0 °F 12.4 °F 17.6 °F 80% 30.36 in 10.0 mi SSE 10.4 mph - N/A   Clear
10:55 PM 23.0 °F 11.1 °F 17.6 °F 80% 30.36 in 10.0 mi SSE 12.7 mph - N/A   Clear
11:15 PM 23.0 °F 13.9 °F 15.8 °F 74% 30.36 in 10.0 mi SSE 8.1 mph - N/A   Clear
11:35 PM 23.0 °F 11.7 °F 15.8 °F 74% 30.35 in 10.0 mi SSE 11.5 mph - N/A   Clear
11:55 PM 24.8 °F 14.6 °F 15.8 °F 69% 30.35 in 10.0 mi SSE 10.4 mph - N/A   Clear